Probability
5 12 17 15 11 7 5 6 7 10 10 7 4 4 4 3 1 0 0 1 3 3 3 2 3 3 3 5 6 4 2 1 0 0 0 0 0 0 0 0 1 0 0
6 13 19 19 15 9 6 6 7 10 11 9 5 5 5 4 2 1 1 3 4 4 3 3 4 3 2 4 5 4 2 1 0 0 0 0 0 1 2 2 1 0 0
9 13 18 20 17 10 7 6 7 9 11 9 6 5 5 5 3 2 3 4 6 6 5 5 5 4 3 4 5 5 3 1 0 0 0 0 1 3 4 4 2 1 1
11 12 15 17 15 10 8 7 7 7 8 9 7 5 4 5 4 3 3 3 5 6 7 6 5 5 6 6 6 6 4 2 1 1 1 1 2 4 5 4 4 4 3
11 13 15 16 14 11 10 10 9 6 6 8 8 6 5 4 3 3 1 1 2 4 5 6 6 7 8 8 8 7 7 5 3 2 3 3 5 7 7 6 6 7 6
10 12 16 17 16 15 14 15 13 9 7 7 7 7 6 4 4 3 1 1 1 3 3 4 7 8 8 7 7 8 7 6 4 3 3 5 8 11 10 9 9 8 8
9 12 16 18 18 18 18 18 17 14 11 8 6 6 6 6 6 4 3 2 3 3 3 4 6 7 6 6 7 6 6 6 4 3 4 7 12 14 12 11 10 8 7
11 13 17 19 19 18 19 19 19 18 16 12 9 7 6 6 6 5 4 4 4 3 3 3 3 4 4 5 6 6 5 4 4 4 5 9 14 15 12 11 10 8 6
13 15 17 18 18 18 17 18 19 19 18 16 12 9 7 6 6 5 4 3 3 3 3 3 1 1 1 3 5 5 4 2 3 5 6 10 14 14 11 9 8 7 6
16 16 15 15 16 15 15 17 19 19 18 15 12 9 7 6 6 4 2 2 3 3 3 3 2 1 0 1 2 3 2 1 2 4 7 11 14 13 10 7 6 6 6
15 15 14 14 14 12 12 15 17 16 14 13 11 9 7 6 4 2 1 1 2 3 3 4 3 2 1 0 1 1 1 1 2 3 7 11 13 12 10 7 6 6 7
13 14 14 14 13 11 11 13 15 14 12 12 11 9 7 5 3 1 1 1 2 3 3 3 3 2 1 1 1 2 3 4 4 3 5 8 9 9 10 10 8 6 7
15 15 15 16 16 14 14 14 15 14 13 12 11 9 6 4 3 3 2 2 3 4 4 4 4 3 2 2 2 3 4 5 5 4 5 7 7 7 9 10 9 7 6
20 19 18 18 18 18 17 15 14 14 13 12 10 8 6 5 4 4 3 2 3 5 5 6 6 4 3 2 1 2 3 4 4 4 6 9 9 8 8 8 8 7 5
25 23 20 18 18 17 16 14 13 13 12 10 8 7 7 6 5 4 3 3 3 4 5 7 6 5 3 1 0 1 1 2 2 4 6 9 10 9 7 6 6 6 5
24 24 21 17 15 13 11 11 12 12 11 9 8 7 7 6 5 4 3 3 3 3 4 5 5 5 4 2 1 2 1 1 1 2 4 7 9 9 8 5 5 5 5
20 23 23 17 13 10 9 8 9 10 10 9 8 7 6 6 6 6 5 5 5 4 5 5 6 6 4 3 3 2 1 1 1 1 2 4 6 7 7 5 4 5 5
18 22 23 18 13 11 9 8 9 8 8 7 7 6 6 6 7 8 8 8 8 7 6 6 7 7 6 4 4 2 1 2 2 1 2 3 4 5 6 6 5 5 6
22 23 23 20 16 13 11 12 11 9 7 6 6 5 6 7 9 9 10 10 9 8 7 7 8 9 8 7 5 3 3 4 4 3 2 3 3 4 5 7 7 6 7
27 27 25 22 21 18 16 15 13 10 8 7 6 5 6 8 9 9 9 8 8 7 7 7 9 9 9 8 6 4 4 5 5 5 4 4 3 3 5 7 7 7 9
29 28 26 25 25 24 21 18 14 10 8 7 5 5 6 7 8 8 7 7 6 6 7 8 9 9 9 7 6 5 4 5 6 6 5 4 3 2 3 5 6 8 10
27 25 24 25 27 26 23 20 15 9 7 6 4 4 4 5 6 6 6 6 6 6 7 8 8 8 7 6 5 4 4 4 5 6 5 4 3 2 2 3 4 7 8
25 22 21 23 25 26 24 20 15 9 6 4 4 5 5 4 5 5 4 4 4 5 6 7 6 5 4 4 4 3 3 3 4 4 4 3 3 3 3 3 3 5 5
22 21 20 21 23 24 22 20 16 11 6 4 4 6 5 4 3 3 3 3 3 4 5 5 5 4 4 3 3 3 3 3 3 3 3 3 3 3 3 3 3 4 5
18 19 21 21 22 21 18 17 16 11 6 4 3 3 3 3 1 1 2 3 3 3 4 5 5 5 4 4 4 4 4 4 3 3 3 3 3 3 3 3 4 4 5
15 18 20 22 21 19 15 14 13 10 5 3 2 1 1 1 0 1 2 3 3 3 4 5 5 4 4 4 5 5 5 5 4 3 3 3 3 3 3 3 4 4 5
Wind_Speed
7 11 12 8 8 7 7 7 8 8 7 8 8 9 8 8 8 9 9 9 9 9 9 9 9 8 8 8 8 8 8 8 8 9 10 11 11 11 11 11 10 11 13
9 12 13 9 8 8 7 7 7 7 7 8 8 8 8 8 8 8 8 8 8 8 8 8 8 8 8 8 8 8 8 8 8 9 9 10 11 10 10 9 6 9 12
10 12 13 10 8 8 8 7 6 7 8 8 8 8 8 8 8 7 7 8 8 7 8 8 8 7 7 7 7 7 7 7 7 7 7 7 10 10 9 9 9 12 11
10 10 10 11 8 8 8 7 7 7 7 8 7 8 8 8 8 8 7 7 7 7 7 7 7 7 6 6 6 6 6 6 6 7 6 5 7 11 10 10 10 11 11
9 9 11 10 8 8 8 7 7 7 7 7 7 7 8 8 8 7 7 7 7 7 6 7 6 6 5 6 6 6 6 6 7 9 4 4 6 11 10 10 11 11 11
10 10 12 10 9 8 7 7 7 7 7 7 7 7 7 7 7 7 7 7 7 6 6 6 6 6 5 5 6 6 5 6 9 6 5 5 6 11 10 10 10 11 11
9 9 12 10 8 8 7 7 7 7 7 6 6 7 6 6 6 7 6 6 6 6 6 6 6 6 5 5 5 5 5 5 6 4 5 4 7 10 9 8 9 9 10
9 9 11 11 8 7 7 7 7 7 6 6 6 6 6 5 6 6 6 6 6 6 6 6 5 5 5 5 5 4 4 6 5 4 4 5 9 9 9 8 8 8 9
8 8 9 10 9 9 7 7 7 7 6 6 6 6 6 5 5 5 5 5 5 6 6 6 6 5 4 4 4 4 4 6 6 3 5 4 10 9 8 8 8 8 8
7 7 7 8 8 8 8 8 7 7 7 6 6 6 6 6 7 6 6 5 5 5 5 5 6 5 5 5 5 4 5 7 6 3 3 6 9 8 8 8 7 7 8
6 6 6 6 6 6 6 7 7 8 8 8 7 7 6 5 5 6 4 5 4 5 4 4 5 5 6 7 7 7 8 5 3 1 2 8 8 7 7 7 7 7 7
8 7 6 5 5 5 4 5 5 5 6 5 4 5 4 2 2 2 7 5 4 4 4 4 4 6 7 5 8 9 5 4 2 2 4 7 6 7 7 7 7 7 7
8 7 7 6 5 4 3 3 3 2 3 4 4 4 2 2 3 2 3 5 5 5 4 5 6 4 3 2 3 4 3 3 2 2 5 7 6 6 6 7 6 6 7
8 8 6 6 5 4 3 2 3 2 2 2 4 3 3 2 2 2 2 2 2 2 2 2 2 2 2 3 3 3 4 3 2 2 4 7 5 6 6 6 6 7 7
8 8 7 6 5 4 3 2 2 2 2 3 2 3 2 2 2 2 1 1 2 1 3 2 2 2 3 3 3 3 3 3 3 3 3 7 6 6 7 6 6 7 8
7 7 7 7 6 5 4 3 2 2 2 2 2 3 2 2 2 2 3 2 2 2 1 2 2 2 2 1 2 2 3 2 2 2 2 5 8 7 6 7 7 7 8
7 7 6 7 6 5 5 4 3 3 3 3 3 3 3 2 2 3 2 3 2 2 2 2 2 3 3 3 2 2 2 2 2 2 3 3 5 8 7 6 7 7 8
6 6 6 6 7 6 5 4 3 2 3 2 2 3 3 3 3 3 3 2 2 2 2 2 2 2 2 2 2 2 2 2 3 3 3 4 3 3 7 7 6 7 8
6 6 6 6 6 6 6 4 4 3 2 2 2 2 3 3 4 3 2 1 3 2 2 2 1 1 2 2 2 2 1 1 2 2 3 3 2 3 3 6 7 6 7
5 6 6 6 6 6 5 4 3 3 3 2 2 2 2 3 4 3 3 3 3 2 2 1 1 1 1 1 1 1 1 1 1 1 3 3 3 4 4 4 5 7 8
6 6 6 6 5 5 4 4 4 3 3 3 2 3 3 3 3 3 2 3 3 2 2 2 2 2 2 1 1 2 2 2 2 2 2 2 2 3 3 4 4 3 5
6 6 6 6 6 6 4 3 2 3 2 2 2 3 3 3 2 3 2 3 2 2 2 2 2 2 2 2 2 2 2 3 3 2 2 2 2 2 3 4 3 4 3
6 6 5 5 6 5 5 4 4 3 3 3 3 3 3 2 2 1 2 2 2 3 3 3 3 3 2 2 2 2 2 1 1 3 2 2 2 2 3 3 4 4 5
6 6 6 5 5 5 5 4 5 4 3 3 2 2 3 3 2 2 2 1 2 1 2 3 3 3 3 3 2 2 2 2 2 2 3 3 3 3 3 3 3 4 5
5 6 6 6 5 5 4 4 4 3 3 3 3 3 3 3 2 2 2 1 1 1 1 2 2 3 3 3 2 2 2 2 3 3 2 2 2 2 3 3 3 3 4
6 6 6 7 5 5 4 4 4 4 4 4 3 3 3 2 2 2 2 1 1 1 1 2 2 3 2 2 3 2 2 2 2 3 3 3 2 1 1 2 3 3 3
Wind_Direction
140 128 132 143 143 138 137 136 136 137 137 137 136 134 134 135 134 134 133 132 131 131 133 132 128 124 123 123 120 116 114 116 118 121 127 130 131 131 133 138 151 132 125
138 131 135 143 144 143 144 141 138 138 140 140 140 140 140 138 137 134 132 131 130 132 135 136 133 129 129 129 127 124 123 124 125 127 134 142 139 138 140 142 134 119 133
137 134 144 144 145 147 149 147 145 142 142 145 149 147 145 143 140 136 135 133 132 132 136 140 139 135 133 132 127 126 130 132 133 142 172 164 140 142 141 136 128 130 136
136 140 142 141 147 146 146 148 148 147 148 150 154 153 150 150 147 145 144 141 137 136 137 140 141 138 137 139 135 131 132 138 149 177 187 148 140 134 143 141 140 141 142
140 141 134 145 146 148 151 154 154 154 155 153 152 157 154 155 156 155 153 151 146 140 138 137 139 134 132 138 139 140 145 155 173 205 164 148 131 132 148 150 149 150 148
149 149 136 149 148 151 153 156 158 159 160 156 153 155 157 159 159 160 158 157 154 148 145 142 141 137 134 137 140 139 149 169 201 184 153 159 134 138 150 156 156 154 154
150 145 138 148 150 153 157 158 159 159 158 155 149 148 153 158 162 162 162 162 159 155 152 147 140 140 143 141 143 150 161 193 224 167 162 155 124 137 152 158 161 160 160
148 144 136 148 154 156 159 163 161 156 152 148 144 146 148 161 163 164 164 166 162 157 159 158 151 149 149 147 152 157 170 226 213 176 157 143 123 140 153 157 160 162 160
149 146 148 155 159 164 162 159 158 156 151 148 143 148 153 161 160 163 165 164 161 163 165 164 164 163 158 158 163 171 184 231 245 184 161 137 132 150 160 162 163 166 165
149 152 155 160 163 172 167 156 158 158 156 156 153 158 165 171 172 173 176 154 156 157 160 160 167 169 171 173 171 178 202 229 235 191 156 129 138 155 167 169 172 171 170
156 159 163 165 165 176 166 152 164 161 157 169 167 163 184 191 173 178 141 130 144 151 151 152 164 173 187 182 180 189 214 227 206 196 125 114 140 160 172 178 176 177 174
167 167 164 161 167 173 163 156 174 172 163 187 165 173 189 162 168 148 125 137 149 161 165 161 184 197 219 192 178 200 216 214 205 177 127 125 144 163 171 173 174 180 182
170 170 167 165 168 169 162 165 164 163 161 177 163 171 165 174 163 170 163 165 175 189 196 174 203 213 211 206 212 198 209 219 196 185 137 138 157 171 174 171 174 179 183
173 174 171 167 168 173 168 165 163 162 166 166 153 179 170 174 175 160 192 174 186 188 189 215 209 201 226 213 221 206 201 215 190 180 140 147 166 182 183 182 185 190 191
178 175 173 175 165 169 170 194 165 163 163 155 162 164 190 186 180 167 173 191 229 200 188 209 206 208 228 215 218 208 210 207 214 203 149 158 177 187 189 193 195 196 200
179 178 173 174 167 173 176 180 172 171 159 165 166 156 188 187 173 178 192 194 224 233 230 227 206 212 228 225 226 210 215 204 195 217 198 168 182 190 193 204 211 211 211
179 176 176 177 172 180 183 181 177 173 169 172 154 158 179 189 180 193 193 203 208 216 212 226 212 213 211 207 199 204 208 205 192 203 220 220 185 180 191 206 213 220 222
179 178 180 183 177 181 186 189 180 173 163 165 164 161 173 178 192 210 202 204 205 225 221 215 231 221 223 227 205 214 207 187 186 203 216 214 218 192 179 180 201 218 223
178 178 185 185 181 184 185 179 172 166 167 168 170 168 164 179 195 216 209 187 215 217 225 238 196 229 221 237 217 202 228 213 192 194 207 210 202 222 205 168 188 207 219
167 174 184 182 178 181 178 170 167 166 168 169 166 161 180 184 189 207 200 192 218 214 221 237 212 215 228 230 245 163 239 231 233 200 219 199 202 218 222 209 200 193 202
165 174 180 179 171 177 175 179 170 170 169 161 165 159 183 188 182 203 210 184 211 201 228 218 218 193 197 195 223 197 199 202 191 207 222 222 202 216 221 219 230 219 188
167 172 176 176 174 182 166 172 170 157 169 159 161 154 171 173 184 194 201 203 190 191 197 197 212 229 185 197 241 231 217 195 192 202 210 215 222 217 216 214 224 230 237
164 173 177 173 171 173 165 167 155 153 168 155 157 154 157 165 173 184 180 206 204 208 177 196 210 217 210 201 233 258 260 244 185 180 208 215 230 232 234 225 220 223 233
163 167 168 162 157 156 168 175 177 175 169 155 159 141 141 142 147 149 159 176 211 208 180 207 194 220 225 213 194 237 272 313 267 210 199 200 216 226 240 247 233 222 229
162 163 159 151 148 156 171 170 180 171 158 146 146 135 141 127 129 130 140 162 199 218 204 227 199 237 235 250 232 211 213 218 250 255 240 227 219 222 220 235 244 237 228
159 157 153 146 147 158 163 162 176 160 157 155 161 149 161 140 142 146 160 157 190 219 198 216 222 219 246 258 263 244 231 229 240 243 248 245 251 259 246 248 240 234 229